| time (UTC) | temp F | wind direction | speed MPH | gust MPH | rain 1hr in | rain 24hr in | rain mn in | humidity % | barometer mb |
| 20260503181542 | 73 | 192 | 11.0 | 26.0 | 0.00 | 0.00 | 0.00 | 31 | 1015.5 |
| 20260503180050 | 73 | 200 | 12.0 | 24.0 | 0.00 | 0.00 | 0.00 | 31 | 1015.3 |
| 20260503174540 | 73 | 188 | 10.0 | 20.0 | 0.00 | 0.00 | 0.00 | 32 | 1015.3 |
| 20260503173040 | 73 | 196 | 13.0 | 23.0 | 0.00 | 0.00 | 0.00 | 32 | 1015.2 |
| 20260503171545 | 73 | 192 | 16.0 | 24.0 | 0.00 | 0.00 | 0.00 | 33 | 1015.2 |
| 20260503120116 | 77 | 156 | 9.0 | 20.0 | 0.00 | 0.00 | 0.00 | 31 | 1016.6 |
| 20260503081527 | 63 | 355 | 2.0 | 5.0 | 0.00 | 0.00 | 0.00 | 55 | 1020.4 |
| 20260503071521 | 59 | 355 | 2.0 | 4.0 | 0.00 | 0.00 | 0.00 | 62 | 1021.1 |
| 20260503054513 | 51 | 322 | 0.0 | 0.0 | 0.00 | 0.00 | 0.00 | 77 | 1021.6 |
| 20260503053013 | 50 | 321 | 0.0 | 1.0 | 0.00 | 0.00 | 0.00 | 78 | 1021.6 |
| 20260503051513 | 50 | 329 | 0.0 | 2.0 | 0.00 | 0.00 | 0.00 | 79 | 1021.6 |
| 20260503050022 | 49 | 329 | 1.0 | 4.0 | 0.00 | 0.00 | 0.00 | 78 | 1021.7 |
| 20260503044509 | 49 | 325 | 0.0 | 1.0 | 0.00 | 0.00 | 0.00 | 78 | 1021.6 |
| 20260503043008 | 49 | 329 | 0.0 | 0.0 | 0.00 | 0.00 | 0.00 | 79 | 1021.6 |
| 20260503041508 | 49 | 329 | 0.0 | 0.0 | 0.00 | 0.00 | 0.00 | 78 | 1021.6 |
| 20260503040005 | 49 | 330 | 0.0 | 0.0 | 0.00 | 0.00 | 0.00 | 77 | 1021.5 |
| 20260503034505 | 49 | 330 | 0.0 | 0.0 | 0.00 | 0.00 | 0.00 | 78 | 1021.5 |
| 20260503033007 | 49 | 330 | 0.0 | 0.0 | 0.00 | 0.00 | 0.00 | 78 | 1021.5 |
| 20260503031506 | 49 | 329 | 0.0 | 0.0 | 0.00 | 0.00 | 0.00 | 77 | 1021.5 |
| 20260503030002 | 50 | 329 | 0.0 | 2.0 | 0.00 | 0.00 | 0.00 | 76 | 1021.5 |
| 20260503024559 | 50 | 330 | 0.0 | 0.0 | 0.00 | 0.00 | 0.00 | 75 | 1021.5 |
| 20260503023100 | 50 | 330 | 0.0 | 0.0 | 0.00 | 0.00 | 0.00 | 75 | 1021.5 |
| 20260503021556 | 51 | 330 | 0.0 | 0.0 | 0.00 | 0.00 | 0.00 | 75 | 1021.4 |
| 20260503020055 | 51 | 330 | 0.0 | 0.0 | 0.00 | 0.00 | 0.00 | 75 | 1021.5 |
| 20260503014608 | 51 | 329 | 0.0 | 2.0 | 0.00 | 0.00 | 0.00 | 73 | 1021.6 |
| 20260503013051 | 51 | 336 | 0.0 | 1.0 | 0.00 | 0.00 | 0.00 | 72 | 1021.6 |
| 20260503011554 | 52 | 336 | 0.0 | 0.0 | 0.00 | 0.00 | 0.00 | 71 | 1021.6 |
| 20260503010046 | 53 | 336 | 0.0 | 0.0 | 0.00 | 0.00 | 0.00 | 70 | 1021.6 |
| 20260503004544 | 53 | 336 | 0.0 | 2.0 | 0.00 | 0.00 | 0.00 | 69 | 1021.7 |
| 20260503003041 | 54 | 22 | 0.0 | 1.0 | 0.00 | 0.00 | 0.00 | 67 | 1021.7 |
| 20260503001553 | 54 | 23 | 0.0 | 0.0 | 0.00 | 0.00 | 0.00 | 67 | 1021.8 |
| 20260503000035 | 55 | 22 | 0.0 | 4.0 | 0.00 | 0.00 | 0.00 | 65 | 1021.9 |
| 20260502234539 | 56 | 184 | 0.0 | 3.0 | 0.00 | 0.00 | 0.00 | 62 | 1022.0 |
| 20260502233029 | 57 | 184 | 0.0 | 2.0 | 0.00 | 0.00 | 0.00 | 59 | 1021.9 |
| 20260502231526 | 58 | 184 | 1.0 | 3.0 | 0.00 | 0.00 | 0.00 | 57 | 1022.0 |
| 20260502230029 | 59 | 22 | 0.0 | 3.0 | 0.00 | 0.00 | 0.00 | 56 | 1022.0 |
| 20260502224523 | 59 | 189 | 1.0 | 4.0 | 0.00 | 0.00 | 0.00 | 55 | 1022.0 |
| 20260502223019 | 60 | 211 | 1.0 | 4.0 | 0.00 | 0.00 | 0.00 | 53 | 1022.0 |
| 20260502221516 | 62 | 105 | 3.0 | 7.0 | 0.00 | 0.00 | 0.00 | 50 | 1022.0 |
| 20260502220013 | 61 | 216 | 1.0 | 3.0 | 0.00 | 0.00 | 0.00 | 51 | 1022.0 |
| 20260502214513 | 62 | 218 | 3.0 | 5.0 | 0.00 | 0.00 | 0.00 | 49 | 1021.9 |
| 20260502213012 | 62 | 202 | 2.0 | 5.0 | 0.00 | 0.00 | 0.00 | 48 | 1021.8 |
| 20260502211512 | 63 | 229 | 2.0 | 4.0 | 0.00 | 0.00 | 0.00 | 46 | 1021.7 |
| 20260502210011 | 65 | 207 | 1.0 | 12.0 | 0.00 | 0.00 | 0.00 | 44 | 1021.7 |
| 20260502204511 | 65 | 87 | 5.0 | 12.0 | 0.00 | 0.00 | 0.00 | 43 | 1021.6 |
| 20260502203010 | 65 | 120 | 3.0 | 9.0 | 0.00 | 0.00 | 0.00 | 42 | 1021.5 |
| 20260502201510 | 66 | 166 | 2.0 | 9.0 | 0.00 | 0.00 | 0.00 | 40 | 1021.4 |
| 20260502200009 | 69 | 167 | 6.0 | 14.0 | 0.00 | 0.00 | 0.00 | 35 | 1021.4 |
| 20260502194509 | 69 | 189 | 8.0 | 16.0 | 0.00 | 0.00 | 0.00 | 35 | 1021.2 |
| 20260502193008 | 69 | 196 | 10.0 | 17.0 | 0.00 | 0.00 | 0.00 | 34 | 1020.9 |
| 20260502191507 | 69 | 224 | 10.0 | 17.0 | 0.00 | 0.00 | 0.00 | 34 | 1020.7 |
| 20260502190012 | 69 | 140 | 8.0 | 19.0 | 0.00 | 0.00 | 0.00 | 34 | 1020.5 |
| 20260502184518 | 70 | 182 | 10.0 | 21.0 | 0.00 | 0.00 | 0.00 | 34 | 1020.4 |
| 20260502183014 | 70 | 196 | 10.0 | 21.0 | 0.00 | 0.00 | 0.00 | 34 | 1020.1 |